{"data":{"norad_id":66336,"intl_designator":"2025-253T","name":"STARLINK-35404","alt_names":[],"object_type":"PAYLOAD","status":"ACTIVE","operator":null,"country":"US","launch_date":"2025-11-06","launch_site_code":"AFETR","launch_vehicle":null,"mission":null,"orbit_class":"UNKNOWN","rcs_meters":null,"size_class":null,"mass_kg":null,"dimensions":null,"purposes":["comms"],"wikipedia_slug":null,"has_3d_model":false,"image_url":null,"decayed_at":null,"tle_current":{"epoch":"2026-09-20T12:42:33.049152Z","epoch_age_seconds":90887,"freshness":"FRESH","line1":"1 66336U 25253T   26263.52954918  .00008624  00000+0  32247-3 0  9993","line2":"2 66336  43.0014 192.0732 0001242 283.9523  76.1190 15.27586537 50045","mean_motion":15.27586537,"eccentricity":0.0001242,"inclination_deg":43.0014,"raan_deg":192.0732,"arg_perigee_deg":283.9523,"mean_anomaly_deg":76.119,"bstar":0.00032247,"rev_number":5004,"period_min":94.26634531802,"perigee_km":482.17736509775,"apogee_km":483.88167886181,"semimajor_km":6861.1665219798,"source":"CELESTRAK","updated_at":"2026-09-21T09:00:35.876349Z"}}}